Simultaneous Nadir Overpasses (SNOs) Predictions

Prediction of SNOs between METOP-A and NOAA-19 Satellite Orbit:

Table of predicted SNOs for the next 14.0 days since TLE Epoch: 10/23/2015
Index Date (METOP-A) Time (METOP-A) Lat,Lon (METOP-A) SZA (METOP-A ) Date (NOAA-19) Time (NOAA-19) Lat,Lon (NOAA-19) SZA (NOAA-19 ) Distance(km) Time Diff (sec)
1 10/31/2015 02:19:08 75.75, 144.02 89.64 10/31/2015 02:17:57 75.73, 142.53 89.61 40.86 71
2 10/31/2015 03:09:55 -75.50, -49.44 90.61 10/31/2015 03:08:47 -75.48, -49.37 90.63 2.61 68
3 10/31/2015 04:00:35 75.49, 117.86 89.40 10/31/2015 03:59:54 75.48, 117.85 89.39 0.59 41
4 10/31/2015 04:51:17 -75.47, -74.85 90.61 10/31/2015 04:50:49 -75.46, -74.82 90.62 1.63 28
5 10/31/2015 05:41:57 75.46, 92.45 89.39 10/31/2015 05:41:56 75.46, 92.40 89.40 1.28 1
6
